SCP
0 0 0 0 0 0 0 0 0 0 0 0 0 0 0 0 0 0 0 0 0 0 0 0 0 0 0 0 0 0 0 0 0 0 0 0 0 0 0 0 0 0 0 0 0 0 0
0 0 0 0 0 0 0 0 0 0 0 0 0 0 0 0 0 0 0 0 0 0 0 0 0 0 0 0 0 0 0 0 0 0 0 0 0 0 0 0 0 0 0 0 0 0 0
0 0 0 0 0 0 0 0 0 0 0 0 0 0 0 0 0 0 0 0 0 0 0 0 0 0 0 0 0 0 0 0 0 0 0 0 0 0 0 0 0 0 0 0 0 0 0
0 0 0 0 0 0 0 0 0 0 0 0 0 0 0 0 0 0 0 0 0 0 0 0 0 0 0 0 0 0 0 0 0 0 0 0 0 0 0 0 0 0 0 0 0 0 0
0 0 0 0 0 0 0 0 0 0 0 0 0 0 0 0 0 0 0 0 0 0 0 0 0 0 0 0 0 0 0 0 0 0 0 0 0 0 0 0 0 0 0 0 0 0 0
0 0 0 0 0 0 0 0 0 0 0 0 0 0 0 0 0 0 0 0 0 0 0 0 0 0 0 0 0 0 0 0 0 0 0 0 0 0 0 0 0 0 0 0 0 0 0
0 0 0 0 0 0 0 0 0 0 0 0 0 0 0 0 0 0 0 0 0 0 0 0 0 0 0 0 0 0 0 0 0 0 0 0 0 0 0 0 0 0 0 0 0 0 0
0 0 0 0 0 0 0 0 0 0 0 0 0 0 0 0 0 0 0 0 0 0 0 0 0 0 0 0 0 0 0 0 0 0 0 0 0 0 0 0 0 0 0 0 0 0 0
0 0 0 0 0 0 0 0 0 0 0 0 0 0 0 0 0 0 0 0 0 0 0 0 0 0 0 0 0 0 0 0 0 0 0 0 0 0 0 0 0 0 0 0 0 0 0
0 0 0 0 0 0 0 0 0 0 0 0 0 0 0 0 0 0 0 0 0 0 0 0 0 0 0 0 0 0 0 0 0 0 0 0 0 0 0 0 0 0 0 0 0 0 0
0 0 0 0 0 0 0 0 0 0 0 0 0 0 0 0 0 0 0 0 0 0 0 0 0 0 0 0 0 0 0 0 0 0 0 0 0 0 0 0 0 0 0 0 0 0 0
0 0 0 0 0 0 0 0 0 0 0 0 0 0 0 0 0 0 0 0 0 0 0 0 0 0 0 0 0 0 0 0 0 0 0 0 0 0 0 0 0 0 0 0 0 0 0
0 0 0 0 0 0 0 0 0 0 0 0 0 0 0 0 0 0 0 0 0 0 0 0 0 0 0 0 0 0 0 0 0 0 0 0 0 0 0 0 0 0 0 0 0 0 0
0 0 0 0 0 0 0 0 0 0 0 0 0 0 0 0 0 0 0 0 0 0 0 0 0 0 0 0 0 0 0 0 0 0 0 0 0 0 0 0 0 0 0 0 0 0 0
0 0 0 0 0 0 0 0 0 0 0 0 0 0 0 0 0 0 0 0 0 0 0 0 0 0 0 0 0 0 0 0 0 0 0 0 0 0 0 0 0 0 0 0 0 0 0
0 0 0 0 0 0 0 0 0 0 0 0 0 0 0 0 0 0 0 0 0 0 0 0 0 0 0 0 0 0 0 0 0 0 0 0 0 0 0 0 0 0 0 0 0 0 0
0 0 0 0 0 0 0 0 0 0 0 0 0 0 0 0 0 0 0 0 0 0 0 0 0 0 0 0 0 0 0 0 0 0 0 0 0 0 0 0 0 0 0 0 0 0 0
0 0 0 0 0 0 0 0 0 0 0 0 0 0 0 0 0 0 0 0 0 0 0 0 0 0 0 0 0 0 0 0 0 0 0 0 0 0 0 0 0 0 0 0 0 0 0
0 0 0 0 0 0 0 0 0 0 0 0 0 0 0 0 0 0 0 0 0 0 0 0 0 0 0 0 0 0 0 0 0 0 0 0 0 0 0 0 0 0 0 0 0 0 0
0 0 0 0 0 0 0 0 0 0 0 0 0 0 0 0 0 0 0 0 0 0 0 0 0 0 0 0 0 0 0 0 0 0 0 0 0 0 0 0 0 0 0 0 0 0 0
0 0 0 0 0 0 0 0 0 0 0 0 0 0 0 0 0 0 0 0 0 0 0 0 0 0 0 0 0 0 0 0 0 0 0 0 0 0 0 0 0 0 0 0 0 0 0
0 0 0 0 0 0 0 0 0 0 0 0 0 0 0 0 0 0 0 0 0 0 0 0 0 0 0 0 0 0 0 0 0 0 0 0 0 0 0 0 0 0 0 0 0 0 0
0 0 0 0 0 0 0 0 0 0 0 0 0 0 0 0 0 0 0 0 0 0 0 0 0 0 0 0 0 0 0 0 0 0 0 0 0 0 0 0 0 0 0 0 0 0 0
0 0 0 0 0 0 0 0 0 0 0 0 0 0 0 0 0 0 0 0 0 0 0 0 0 0 0 0 0 0 0 0 0 0 0 0 0 0 0 0 0 0 0 0 0 0 0
0 0 0 0 0 0 0 0 0 -0 -0 0 0 0 0 0 0 0 0 0 0 0 0 0 0 0 0 0 0 0 0 0 0 0 0 0 0 0 0 0 0 0 0 0 0 0 0
0 0 0 0 0 0 0 0 0 0 -0 0 0 0 0 0 0 0 0 0 0 0 0 0 0 0 0 0 0 0 0 0 0 0 0 0 0 0 0 0 0 0 0 0 0 0 0
0 0 0 0 0 0 0 0 0 0 -0 0 0 0 0 0 0 0 0 0 0 0 0 0 0 0 0 0 0 0 0 0 0 0 0 0 0 0 0 0 0 0 0 0 0 0 0
0 0 0 0 0 0 0 0 0 0 0 0 0 0 0 0 0 0 0 0 0 0 0 0 0 0 0 0 0 0 0 0 0 0 0 0 0 0 0 0 0 0 0 0 0 0 0
0 0 0 0 0 0 0 0 0 0 0 0 0 0 0 0 0 0 0 0 0 0 0 0 0 0 0 0 0 0 0 0 0 0 0 0 0 0 0 0 0 0 0 0 0 0 0
Wind_Speed_500mb
45 48 49 50 50 50 49 46 44 41 38 35 33 31 30 27 25 24 23 22 21 21 19 19 20 20 18 9 11 12 9 9 10 14 14 9 2 6 7 8 6 4 1 5 9 14 15
41 47 52 53 54 55 55 53 50 48 44 41 39 37 34 31 29 27 26 26 24 23 21 21 22 21 17 10 14 14 14 14 14 17 15 10 4 8 11 7 7 5 5 13 16 15 12
46 44 50 57 57 58 59 58 56 53 50 47 44 41 38 34 32 30 29 28 26 25 25 23 22 20 22 27 18 14 15 16 19 19 17 13 9 10 14 9 5 4 5 13 5 5 7
54 53 51 53 60 61 62 62 61 59 56 53 48 45 41 37 34 33 32 30 28 27 27 25 21 18 15 20 21 24 25 17 18 18 16 15 16 12 7 13 8 5 8 5 5 1 0
62 60 59 59 57 62 64 64 64 62 60 57 53 47 43 40 38 36 34 32 30 28 27 25 22 14 14 18 19 27 22 19 19 17 17 17 19 9 11 11 7 11 6 7 12 3 3
68 70 71 62 67 63 65 65 64 63 62 59 54 50 46 42 41 39 35 32 29 29 28 25 27 12 25 13 15 20 24 22 17 22 19 12 7 7 5 7 10 12 8 8 10 5 5
79 79 78 78 73 73 68 68 67 67 64 61 57 54 49 45 42 40 34 25 21 15 28 21 11 11 7 19 17 20 27 28 21 16 10 7 7 17 24 18 6 11 9 11 6 5 5
64 77 86 85 85 80 75 70 62 69 68 63 58 57 50 45 43 41 33 19 16 6 16 27 44 37 21 21 16 27 33 24 17 11 14 7 15 16 10 10 7 7 8 11 8 6 6
39 34 49 82 83 86 81 72 65 65 62 58 54 53 47 37 36 41 40 36 24 11 10 17 40 45 44 42 23 38 45 23 10 13 16 16 7 21 15 9 11 9 13 10 12 2 4
56 48 41 38 92 94 85 78 68 63 62 57 51 47 42 36 36 44 46 32 23 2 6 12 15 17 33 31 12 31 48 20 8 23 17 12 7 13 8 11 16 12 17 13 10 8 9
45 52 49 47 41 79 91 84 74 65 62 60 56 52 49 51 23 37 34 33 27 12 11 5 8 12 27 23 29 15 42 18 17 15 14 14 16 11 10 15 15 11 11 14 7 7 4
42 47 50 47 51 47 46 84 82 72 66 62 60 57 55 53 50 33 29 40 37 7 22 8 10 11 12 5 7 14 12 10 12 10 2 8 3 13 15 5 12 18 13 12 9 6 4
40 40 46 52 52 63 54 51 64 64 70 69 67 65 68 70 72 42 42 52 7 17 1 13 12 14 8 11 7 10 13 13 14 11 12 3 9 7 11 11 6 3 13 2 3 2 12
35 33 34 38 48 69 64 59 56 56 67 77 80 79 77 80 70 55 64 10 19 14 18 5 9 8 14 13 7 11 15 13 11 7 7 13 11 23 14 14 16 15 14 10 15 8 5
33 34 30 29 31 46 69 70 66 48 72 64 77 85 87 88 81 77 62 29 27 13 14 22 8 8 9 9 11 9 15 13 22 23 20 15 12 2 4 8 13 14 11 8 13 4 5
35 36 37 34 36 36 48 62 77 63 55 56 63 74 98 98 94 89 32 38 27 17 16 9 37 18 24 17 15 16 21 14 14 30 8 13 5 1 5 8 6 7 14 5 4 5 10
41 26 39 40 41 41 41 49 63 68 56 60 67 24 35 101 106 73 30 30 37 22 23 17 26 20 14 19 20 13 16 3 14 21 30 12 7 3 8 14 20 7 7 4 7 7 10
59 66 59 49 46 43 40 45 57 67 63 48 51 13 38 62 30 22 34 26 28 49 46 20 10 19 20 23 24 26 29 19 38 36 28 21 9 9 15 3 3 5 15 14 9 11 4
43 52 46 44 47 43 41 42 43 59 62 61 12 16 47 93 24 25 18 32 36 25 32 35 31 16 10 26 16 20 17 15 43 33 33 21 10 5 8 5 3 11 11 8 9 7 16
45 45 46 43 42 41 36 42 32 48 60 61 36 4 14 40 18 18 33 30 32 26 12 28 10 14 10 19 18 11 17 7 29 26 27 40 9 19 32 11 13 14 14 13 14 8 12
43 42 41 45 36 38 34 33 33 40 53 66 41 10 13 7 18 21 10 16 18 13 12 20 8 38 40 24 33 35 8 7 4 12 11 14 24 10 3 5 11 12 18 25 27 25 18
44 39 38 41 44 36 34 33 33 17 45 68 22 14 14 6 31 33 29 22 27 25 17 9 26 26 30 44 42 33 27 15 13 7 13 2 10 8 10 0 3 6 20 21 24 21 28
45 40 39 44 46 43 36 34 35 29 14 16 22 26 23 12 7 20 27 35 36 32 17 23 24 8 11 14 7 9 18 22 11 14 11 15 13 13 13 8 8 10 19 22 10 10 22
46 44 40 38 41 39 36 34 29 31 27 18 18 13 6 7 10 15 12 31 34 42 36 23 29 17 10 18 22 23 25 28 15 5 5 12 12 5 7 7 15 5 1 10 20 10 7
46 44 44 42 46 46 34 32 28 23 25 26 18 15 13 3 3 7 7 3 22 10 16 9 8 20 46 29 7 8 3 4 2 6 2 6 9 6 9 10 11 7 10 14 16 16 18
54 46 47 47 46 46 46 37 36 26 22 17 22 26 11 5 12 14 8 12 7 6 6 4 9 58 29 5 6 12 12 10 11 2 8 3 3 9 7 10 19 3 2 11 9 8 16
55 57 50 50 48 48 42 49 39 34 25 18 13 25 16 7 10 18 6 11 17 9 7 9 10 2 6 5 5 7 7 1 12 18 13 7 3 22 10 8 9 10 14 21 11 10 18
48 53 56 50 49 49 44 44 47 42 36 23 12 12 22 6 8 19 15 13 17 18 8 17 12 2 2 7 5 6 6 7 7 3 9 11 14 7 5 5 15 24 13 17 10 18 30
54 49 53 56 49 52 49 48 45 46 46 25 20 15 16 7 3 17 21 21 22 25 22 38 4 7 14 5 2 4 5 5 9 9 3 8 12 9 14 10 1 55 8 23 35 33 29
Wind_Direction_500mb
269 255 248 246 246 244 242 242 244 246 250 253 255 257 259 258 259 260 265 270 275 281 286 292 299 301 306 289 259 250 242 211 198 187 186 192 217 148 128 128 118 119 314 235 268 266 267
271 267 259 249 247 247 246 244 244 246 248 252 255 256 256 256 258 262 266 272 276 279 284 291 296 298 294 253 255 248 237 230 218 210 212 222 186 157 124 130 148 178 253 277 280 262 253
271 268 265 263 250 248 247 247 246 246 248 250 251 254 254 254 256 261 265 270 273 279 285 290 291 292 277 267 255 241 233 225 222 220 222 215 187 169 148 125 141 146 304 322 294 279 227
270 273 268 263 261 254 248 247 246 247 248 249 248 248 251 254 257 261 264 265 270 278 284 288 287 287 260 254 244 241 236 225 216 212 206 191 175 154 132 126 47 69 52 353 284 257 259
267 265 265 269 265 258 254 248 246 246 246 246 247 246 247 251 256 260 261 262 266 273 279 281 281 263 259 244 231 229 218 209 198 185 173 169 166 137 131 99 20 8 226 213 313 258 142
264 265 264 262 271 267 256 251 248 245 244 243 244 245 246 249 253 254 257 261 268 272 270 271 253 259 234 222 209 208 202 191 177 174 148 163 130 84 53 117 217 194 208 236 228 202 149
262 262 265 260 259 266 262 252 249 246 242 242 243 243 246 248 249 250 250 256 268 266 237 219 215 198 189 202 198 191 187 176 155 163 153 141 123 210 196 196 129 140 170 218 215 234 165
256 257 255 261 260 259 257 251 249 247 243 241 240 242 242 242 242 242 237 218 214 247 296 254 244 237 229 198 180 188 181 173 167 162 122 60 228 211 139 140 153 141 161 246 293 217 155
273 275 261 257 256 249 250 245 243 246 242 236 235 234 234 230 230 232 231 226 226 271 263 256 235 234 223 219 215 192 186 182 149 140 188 174 213 156 141 148 172 206 193 198 215 42 199
267 277 277 268 253 246 241 241 237 238 239 235 229 226 220 215 225 226 230 216 211 223 278 253 217 219 201 194 217 196 190 176 171 186 158 228 226 161 164 188 167 216 199 173 167 131 232
275 265 264 267 274 247 240 234 234 231 235 235 228 224 218 212 212 209 224 195 178 159 282 236 153 170 165 181 146 178 181 185 161 167 142 230 171 179 184 204 161 234 134 160 140 153 120
281 272 260 260 273 272 256 236 235 232 230 231 229 222 216 210 211 212 189 166 149 78 242 192 133 156 133 168 132 114 157 151 148 115 306 237 194 165 195 126 164 150 81 56 58 97 253
292 288 278 271 261 257 263 260 246 233 233 229 227 221 215 211 207 191 168 154 104 214 151 188 180 168 163 159 152 151 168 169 159 135 214 181 213 190 152 97 67 142 115 59 341 287 233
303 298 295 287 277 260 253 255 248 238 239 235 232 218 216 216 207 182 169 173 210 213 197 100 114 93 176 158 189 171 141 180 242 114 123 172 267 170 185 178 175 189 167 167 198 201 245
293 293 300 299 282 276 262 259 259 239 238 235 239 226 214 211 204 188 173 199 216 169 171 137 92 128 219 222 152 147 201 200 193 181 189 175 263 86 123 145 147 185 197 158 106 43 66
271 287 287 298 300 298 274 264 259 255 231 239 243 225 215 213 203 194 195 202 216 169 124 135 204 172 176 190 158 190 179 194 202 187 188 204 183 265 153 105 38 179 153 93 5 196 248
260 281 286 292 298 298 295 265 252 253 237 226 234 217 216 210 200 190 206 218 219 179 166 166 209 193 190 167 185 199 214 225 202 190 178 151 149 201 133 209 177 155 174 69 133 153 187
257 262 272 289 290 298 300 283 249 246 249 251 233 198 185 199 195 203 206 198 192 202 212 227 192 200 172 179 180 202 204 214 190 149 185 189 139 167 203 272 297 195 188 165 166 211 250
275 264 267 272 287 291 298 304 260 239 225 232 242 179 179 189 204 210 210 222 226 197 200 209 210 193 168 191 219 200 192 195 172 167 171 180 194 102 355 324 307 219 194 150 103 82 192
282 269 258 259 285 285 292 306 277 234 225 226 218 224 184 200 213 215 200 215 212 208 210 203 196 173 174 205 210 219 202 181 186 191 185 171 167 201 223 187 142 188 187 181 168 171 182
281 279 263 250 269 278 284 292 300 232 213 223 214 190 194 194 217 219 181 165 206 182 207 205 209 213 197 215 212 223 158 129 182 195 159 157 215 175 212 242 160 174 172 183 202 208 201
273 267 269 253 253 275 272 280 287 278 200 204 197 168 156 290 214 209 211 191 201 212 170 201 231 203 215 221 214 216 195 181 181 163 171 16 205 140 196 174 314 203 221 191 201 215 234
260 265 265 257 256 266 259 272 281 273 283 235 194 199 188 180 198 197 204 201 206 198 211 219 203 171 223 223 116 83 90 86 113 157 154 166 145 157 205 158 134 268 219 190 176 195 193
265 261 252 264 251 246 255 257 270 269 261 274 177 169 173 190 179 200 212 204 201 199 201 196 197 192 194 204 146 110 92 92 110 48 163 159 157 166 134 156 218 216 189 197 199 197 187
265 257 248 252 250 254 254 250 253 262 256 257 193 180 183 174 174 149 120 134 209 175 199 147 185 206 173 138 102 115 50 92 70 30 184 191 132 134 157 216 332 146 204 147 165 245 191
257 262 257 255 247 252 253 253 265 248 258 256 249 211 197 155 213 142 147 154 144 130 92 89 136 148 158 124 150 172 183 155 188 136 343 269 236 185 157 187 205 248 192 152 110 280 210
260 253 254 254 249 244 247 238 244 236 234 239 236 225 204 195 198 161 164 170 148 125 112 129 140 216 102 129 150 172 175 94 165 172 162 153 178 209 179 205 272 216 179 150 136 249 180
274 259 245 253 250 242 241 242 239 235 227 217 230 213 208 186 186 204 188 151 140 153 153 145 106 208 105 197 165 175 141 177 114 133 168 167 160 195 112 170 249 150 115 168 165 140 175
261 271 254 243 249 240 239 238 234 225 226 227 217 188 187 189 226 218 221 211 203 182 143 165 134 156 170 128 140 114 118 159 143 187 178 209 188 183 192 207 149 172 130 163 154 161 168
Wind_Speed_850mb
45 48 49 50 50 50 49 46 44 41 38 35 33 31 30 27 25 24 23 22 21 21 19 19 20 20 18 9 11 12 9 9 10 14 14 9 2 6 7 8 6 4 1 5 9 14 15
41 47 52 53 54 55 55 53 50 48 44 41 39 37 34 31 29 27 26 26 24 23 21 21 22 21 17 10 14 14 14 14 14 17 15 10 4 8 11 7 7 5 5 13 16 15 12
46 44 50 57 57 58 59 58 56 53 50 47 44 41 38 34 32 30 29 28 26 25 25 23 22 20 22 27 18 14 15 16 19 19 17 13 9 10 14 9 5 4 5 13 5 5 7
54 53 51 53 60 61 62 62 61 59 56 53 48 45 41 37 34 33 32 30 28 27 27 25 21 18 15 20 21 24 25 17 18 18 16 15 16 12 7 13 8 5 8 5 5 1 0
62 60 59 59 57 62 64 64 64 62 60 57 53 47 43 40 38 36 34 32 30 28 27 25 22 14 14 18 19 27 22 19 19 17 17 17 19 9 11 11 7 11 6 7 12 3 3
68 70 71 62 67 63 65 65 64 63 62 59 54 50 46 42 41 39 35 32 29 29 28 25 27 12 25 13 15 20 24 22 17 22 19 12 7 7 5 7 10 12 8 8 10 5 5
79 79 78 78 73 73 68 68 67 67 64 61 57 54 49 45 42 40 34 25 21 15 28 21 11 11 7 19 17 20 27 28 21 16 10 7 7 17 24 18 6 11 9 11 6 5 5
64 77 86 85 85 80 75 70 62 69 68 63 58 57 50 45 43 41 33 19 16 6 16 27 44 37 21 21 16 27 33 24 17 11 14 7 15 16 10 10 7 7 8 11 8 6 6
39 34 49 82 83 86 81 72 65 65 62 58 54 53 47 37 36 41 40 36 24 11 10 17 40 45 44 42 23 38 45 23 10 13 16 16 7 21 15 9 11 9 13 10 12 2 4
56 48 41 38 92 94 85 78 68 63 62 57 51 47 42 36 36 44 46 32 23 2 6 12 15 17 33 31 12 31 48 20 8 23 17 12 7 13 8 11 16 12 17 13 10 8 9
45 52 49 47 41 79 91 84 74 65 62 60 56 52 49 51 23 37 34 33 27 12 11 5 8 12 27 23 29 15 42 18 17 15 14 14 16 11 10 15 15 11 11 14 7 7 4
42 47 50 47 51 47 46 84 82 72 66 62 60 57 55 53 50 33 29 40 37 7 22 8 10 11 12 5 7 14 12 10 12 10 2 8 3 13 15 5 12 18 13 12 9 6 4
40 40 46 52 52 63 54 51 64 64 70 69 67 65 68 70 72 42 42 52 7 17 1 13 12 14 8 11 7 10 13 13 14 11 12 3 9 7 11 11 6 3 13 2 3 2 12
35 33 34 38 48 69 64 59 56 56 67 77 80 79 77 80 70 55 64 10 19 14 18 5 9 8 14 13 7 11 15 13 11 7 7 13 11 23 14 14 16 15 14 10 15 8 5
33 34 30 29 31 46 69 70 66 48 72 64 77 85 87 88 81 77 62 29 27 13 14 22 8 8 9 9 11 9 15 13 22 23 20 15 12 2 4 8 13 14 11 8 13 4 5
35 36 37 34 36 36 48 62 77 63 55 56 63 74 98 98 94 89 32 38 27 17 16 9 37 18 24 17 15 16 21 14 14 30 8 13 5 1 5 8 6 7 14 5 4 5 10
41 26 39 40 41 41 41 49 63 68 56 60 67 24 35 101 106 73 30 30 37 22 23 17 26 20 14 19 20 13 16 3 14 21 30 12 7 3 8 14 20 7 7 4 7 7 10
59 66 59 49 46 43 40 45 57 67 63 48 51 13 38 62 30 22 34 26 28 49 46 20 10 19 20 23 24 26 29 19 38 36 28 21 9 9 15 3 3 5 15 14 9 11 4
43 52 46 44 47 43 41 42 43 59 62 61 12 16 47 93 24 25 18 32 36 25 32 35 31 16 10 26 16 20 17 15 43 33 33 21 10 5 8 5 3 11 11 8 9 7 16
45 45 46 43 42 41 36 42 32 48 60 61 36 4 14 40 18 18 33 30 32 26 12 28 10 14 10 19 18 11 17 7 29 26 27 40 9 19 32 11 13 14 14 13 14 8 12
43 42 41 45 36 38 34 33 33 40 53 66 41 10 13 7 18 21 10 16 18 13 12 20 8 38 40 24 33 35 8 7 4 12 11 14 24 10 3 5 11 12 18 25 27 25 18
44 39 38 41 44 36 34 33 33 17 45 68 22 14 14 6 31 33 29 22 27 25 17 9 26 26 30 44 42 33 27 15 13 7 13 2 10 8 10 0 3 6 20 21 24 21 28
45 40 39 44 46 43 36 34 35 29 14 16 22 26 23 12 7 20 27 35 36 32 17 23 24 8 11 14 7 9 18 22 11 14 11 15 13 13 13 8 8 10 19 22 10 10 22
46 44 40 38 41 39 36 34 29 31 27 18 18 13 6 7 10 15 12 31 34 42 36 23 29 17 10 18 22 23 25 28 15 5 5 12 12 5 7 7 15 5 1 10 20 10 7
46 44 44 42 46 46 34 32 28 23 25 26 18 15 13 3 3 7 7 3 22 10 16 9 8 20 46 29 7 8 3 4 2 6 2 6 9 6 9 10 11 7 10 14 16 16 18
54 46 47 47 46 46 46 37 36 26 22 17 22 26 11 5 12 14 8 12 7 6 6 4 9 58 29 5 6 12 12 10 11 2 8 3 3 9 7 10 19 3 2 11 9 8 16
55 57 50 50 48 48 42 49 39 34 25 18 13 25 16 7 10 18 6 11 17 9 7 9 10 2 6 5 5 7 7 1 12 18 13 7 3 22 10 8 9 10 14 21 11 10 18
48 53 56 50 49 49 44 44 47 42 36 23 12 12 22 6 8 19 15 13 17 18 8 17 12 2 2 7 5 6 6 7 7 3 9 11 14 7 5 5 15 24 13 17 10 18 30
54 49 53 56 49 52 49 48 45 46 46 25 20 15 16 7 3 17 21 21 22 25 22 38 4 7 14 5 2 4 5 5 9 9 3 8 12 9 14 10 1 55 8 23 35 33 29
Wind_Direction_850mb
269 255 248 246 246 244 242 242 244 246 250 253 255 257 259 258 259 260 265 270 275 281 286 292 299 301 306 289 259 250 242 211 198 187 186 192 217 148 128 128 118 119 314 235 268 266 267
271 267 259 249 247 247 246 244 244 246 248 252 255 256 256 256 258 262 266 272 276 279 284 291 296 298 294 253 255 248 237 230 218 210 212 222 186 157 124 130 148 178 253 277 280 262 253
271 268 265 263 250 248 247 247 246 246 248 250 251 254 254 254 256 261 265 270 273 279 285 290 291 292 277 267 255 241 233 225 222 220 222 215 187 169 148 125 141 146 304 322 294 279 227
270 273 268 263 261 254 248 247 246 247 248 249 248 248 251 254 257 261 264 265 270 278 284 288 287 287 260 254 244 241 236 225 216 212 206 191 175 154 132 126 47 69 52 353 284 257 259
267 265 265 269 265 258 254 248 246 246 246 246 247 246 247 251 256 260 261 262 266 273 279 281 281 263 259 244 231 229 218 209 198 185 173 169 166 137 131 99 20 8 226 213 313 258 142
264 265 264 262 271 267 256 251 248 245 244 243 244 245 246 249 253 254 257 261 268 272 270 271 253 259 234 222 209 208 202 191 177 174 148 163 130 84 53 117 217 194 208 236 228 202 149
262 262 265 260 259 266 262 252 249 246 242 242 243 243 246 248 249 250 250 256 268 266 237 219 215 198 189 202 198 191 187 176 155 163 153 141 123 210 196 196 129 140 170 218 215 234 165
256 257 255 261 260 259 257 251 249 247 243 241 240 242 242 242 242 242 237 218 214 247 296 254 244 237 229 198 180 188 181 173 167 162 122 60 228 211 139 140 153 141 161 246 293 217 155
273 275 261 257 256 249 250 245 243 246 242 236 235 234 234 230 230 232 231 226 226 271 263 256 235 234 223 219 215 192 186 182 149 140 188 174 213 156 141 148 172 206 193 198 215 42 199
267 277 277 268 253 246 241 241 237 238 239 235 229 226 220 215 225 226 230 216 211 223 278 253 217 219 201 194 217 196 190 176 171 186 158 228 226 161 164 188 167 216 199 173 167 131 232
275 265 264 267 274 247 240 234 234 231 235 235 228 224 218 212 212 209 224 195 178 159 282 236 153 170 165 181 146 178 181 185 161 167 142 230 171 179 184 204 161 234 134 160 140 153 120
281 272 260 260 273 272 256 236 235 232 230 231 229 222 216 210 211 212 189 166 149 78 242 192 133 156 133 168 132 114 157 151 148 115 306 237 194 165 195 126 164 150 81 56 58 97 253
292 288 278 271 261 257 263 260 246 233 233 229 227 221 215 211 207 191 168 154 104 214 151 188 180 168 163 159 152 151 168 169 159 135 214 181 213 190 152 97 67 142 115 59 341 287 233
303 298 295 287 277 260 253 255 248 238 239 235 232 218 216 216 207 182 169 173 210 213 197 100 114 93 176 158 189 171 141 180 242 114 123 172 267 170 185 178 175 189 167 167 198 201 245
293 293 300 299 282 276 262 259 259 239 238 235 239 226 214 211 204 188 173 199 216 169 171 137 92 128 219 222 152 147 201 200 193 181 189 175 263 86 123 145 147 185 197 158 106 43 66
271 287 287 298 300 298 274 264 259 255 231 239 243 225 215 213 203 194 195 202 216 169 124 135 204 172 176 190 158 190 179 194 202 187 188 204 183 265 153 105 38 179 153 93 5 196 248
260 281 286 292 298 298 295 265 252 253 237 226 234 217 216 210 200 190 206 218 219 179 166 166 209 193 190 167 185 199 214 225 202 190 178 151 149 201 133 209 177 155 174 69 133 153 187
257 262 272 289 290 298 300 283 249 246 249 251 233 198 185 199 195 203 206 198 192 202 212 227 192 200 172 179 180 202 204 214 190 149 185 189 139 167 203 272 297 195 188 165 166 211 250
275 264 267 272 287 291 298 304 260 239 225 232 242 179 179 189 204 210 210 222 226 197 200 209 210 193 168 191 219 200 192 195 172 167 171 180 194 102 355 324 307 219 194 150 103 82 192
282 269 258 259 285 285 292 306 277 234 225 226 218 224 184 200 213 215 200 215 212 208 210 203 196 173 174 205 210 219 202 181 186 191 185 171 167 201 223 187 142 188 187 181 168 171 182
281 279 263 250 269 278 284 292 300 232 213 223 214 190 194 194 217 219 181 165 206 182 207 205 209 213 197 215 212 223 158 129 182 195 159 157 215 175 212 242 160 174 172 183 202 208 201
273 267 269 253 253 275 272 280 287 278 200 204 197 168 156 290 214 209 211 191 201 212 170 201 231 203 215 221 214 216 195 181 181 163 171 16 205 140 196 174 314 203 221 191 201 215 234
260 265 265 257 256 266 259 272 281 273 283 235 194 199 188 180 198 197 204 201 206 198 211 219 203 171 223 223 116 83 90 86 113 157 154 166 145 157 205 158 134 268 219 190 176 195 193
265 261 252 264 251 246 255 257 270 269 261 274 177 169 173 190 179 200 212 204 201 199 201 196 197 192 194 204 146 110 92 92 110 48 163 159 157 166 134 156 218 216 189 197 199 197 187
265 257 248 252 250 254 254 250 253 262 256 257 193 180 183 174 174 149 120 134 209 175 199 147 185 206 173 138 102 115 50 92 70 30 184 191 132 134 157 216 332 146 204 147 165 245 191
257 262 257 255 247 252 253 253 265 248 258 256 249 211 197 155 213 142 147 154 144 130 92 89 136 148 158 124 150 172 183 155 188 136 343 269 236 185 157 187 205 248 192 152 110 280 210
260 253 254 254 249 244 247 238 244 236 234 239 236 225 204 195 198 161 164 170 148 125 112 129 140 216 102 129 150 172 175 94 165 172 162 153 178 209 179 205 272 216 179 150 136 249 180
274 259 245 253 250 242 241 242 239 235 227 217 230 213 208 186 186 204 188 151 140 153 153 145 106 208 105 197 165 175 141 177 114 133 168 167 160 195 112 170 249 150 115 168 165 140 175
261 271 254 243 249 240 239 238 234 225 226 227 217 188 187 189 226 218 221 211 203 182 143 165 134 156 170 128 140 114 118 159 143 187 178 209 188 183 192 207 149 172 130 163 154 161 168